Time,TemperatureF,DewpointF,PressureIn,WindDirection,WindDirectionDegrees,WindSpeedMPH,WindSpeedGustMPH,Humidity,HourlyPrecipIn,Conditions,Clouds,dailyrainin,SoftwareType,DateUTC
2013-04-25 00:03:00,35.0,-99.9,30.69,SSW,196,5.0,9.0,-999,-99.99,,,-99.99,,2013-04-25 04:03:00,
2013-04-25 00:13:00,35.0,-99.9,29.99,SSW,196,5.0,9.0,-999,-99.99,,,-99.99,,2013-04-25 04:13:00,
2013-04-25 00:23:00,35.0,-99.9,29.99,SSW,196,5.0,9.0,-999,-99.99,,,-99.99,,2013-04-25 04:23:00,
2013-04-25 00:33:00,35.0,-99.9,29.99,SSW,196,5.0,9.0,-999,-99.99,,,-99.99,,2013-04-25 04:33:00,
2013-04-25 00:40:00,36.0,-99.9,29.98,SSW,206,7.0,11.0,-999,-99.99,,,-99.99,,2013-04-25 04:40:00,
2013-04-25 01:03:00,36.0,-99.9,30.68,SSW,206,7.0,11.0,-999,-99.99,,,-99.99,,2013-04-25 05:03:00,
2013-04-25 01:12:00,36.0,-99.9,29.98,SSW,206,7.0,11.0,-999,-99.99,,,-99.99,,2013-04-25 05:12:00,
2013-04-25 01:22:00,36.0,-99.9,29.98,SSW,206,7.0,11.0,-999,-99.99,,,-99.99,,2013-04-25 05:22:00,
2013-04-25 01:32:00,36.0,-99.9,29.98,SSW,206,7.0,11.0,-999,-99.99,,,-99.99,,2013-04-25 05:32:00,
2013-04-25 01:40:00,37.0,-99.9,29.97,SSW,207,8.0,13.0,-999,-99.99,,,-99.99,,2013-04-25 05:40:00,
2013-04-25 02:02:00,37.0,-99.9,30.67,SSW,207,8.0,13.0,-999,-99.99,,,-99.99,,2013-04-25 06:02:00,
2013-04-25 02:12:00,37.0,-99.9,29.97,SSW,207,8.0,13.0,-999,-99.99,,,-99.99,,2013-04-25 06:12:00,
2013-04-25 02:22:00,37.0,-99.9,29.97,SSW,207,8.0,13.0,-999,-99.99,,,-99.99,,2013-04-25 06:22:00,
2013-04-25 02:32:00,37.0,-99.9,29.97,SSW,207,8.0,13.0,-999,-99.99,,,-99.99,,2013-04-25 06:32:00,
2013-04-25 02:40:00,37.0,-99.9,29.95,SSW,196,7.0,12.0,-999,-99.99,,,-99.99,,2013-04-25 06:40:00,
2013-04-25 03:02:00,37.0,-99.9,30.65,SSW,196,7.0,12.0,-999,-99.99,,,-99.99,,2013-04-25 07:02:00,
2013-04-25 03:12:00,37.0,-99.9,29.95,SSW,196,7.0,12.0,-999,-99.99,,,-99.99,,2013-04-25 07:12:00,
2013-04-25 03:22:00,37.0,-99.9,29.95,SSW,196,7.0,12.0,-999,-99.99,,,-99.99,,2013-04-25 07:22:00,
2013-04-25 03:32:00,37.0,-99.9,29.95,SSW,196,7.0,12.0,-999,-99.99,,,-99.99,,2013-04-25 07:32:00,
2013-04-25 04:02:00,37.0,-99.9,30.63,South,181,6.0,14.0,-999,-99.99,,,-99.99,,2013-04-25 08:02:00,
2013-04-25 04:11:00,37.0,-99.9,29.93,South,181,6.0,14.0,-999,-99.99,,,-99.99,,2013-04-25 08:11:00,
2013-04-25 04:22:00,37.0,-99.9,30.63,South,169,8.0,16.0,-999,-99.99,,,-99.99,,2013-04-25 08:22:00,
2013-04-25 04:32:00,37.0,-99.9,29.93,South,169,8.0,16.0,-999,-99.99,,,-99.99,,2013-04-25 08:32:00,
2013-04-25 04:42:00,37.0,-99.9,30.63,South,169,8.0,16.0,-999,-99.99,,,-99.99,,2013-04-25 08:42:00,
2013-04-25 04:52:00,37.0,-99.9,29.93,South,169,8.0,16.0,-999,-99.99,,,-99.99,,2013-04-25 08:52:00,
2013-04-25 05:01:00,37.0,-99.9,30.63,SSW,210,8.0,16.0,-999,-99.99,,,-99.99,,2013-04-25 09:01:00,
2013-04-25 05:11:00,37.0,-99.9,29.93,SSW,210,8.0,16.0,-999,-99.99,,,-99.99,,2013-04-25 09:11:00,
2013-04-25 05:22:00,40.0,-99.9,30.62,SW,228,16.0,27.0,-999,-99.99,,,-99.99,,2013-04-25 09:22:00,
2013-04-25 05:33:00,40.0,-99.9,29.92,SW,228,16.0,27.0,-999,-99.99,,,-99.99,,2013-04-25 09:33:00,
2013-04-25 05:40:00,40.0,-99.9,29.92,SSW,213,12.0,23.0,-999,-99.99,,,-99.99,,2013-04-25 09:40:00,
2013-04-25 05:42:00,40.0,-99.9,29.92,SW,228,16.0,27.0,-999,-99.99,,,-99.99,,2013-04-25 09:42:00,
2013-04-25 05:53:00,40.0,-99.9,29.92,SW,228,16.0,27.0,-999,-99.99,,,-99.99,,2013-04-25 09:53:00,
2013-04-25 06:03:00,40.0,-99.9,30.62,SSW,213,12.0,23.0,-999,-99.99,,,-99.99,,2013-04-25 10:03:00,
2013-04-25 06:12:00,40.0,-99.9,29.92,SSW,213,12.0,23.0,-999,-99.99,,,-99.99,,2013-04-25 10:12:00,
2013-04-25 06:22:00,40.0,-99.9,29.92,SSW,213,12.0,23.0,-999,-99.99,,,-99.99,,2013-04-25 10:22:00,
2013-04-25 06:33:00,40.0,-99.9,29.92,SSW,213,12.0,23.0,-999,-99.99,,,-99.99,,2013-04-25 10:33:00,
2013-04-25 06:40:00,37.0,-99.9,29.91,South,186,9.0,17.0,-999,-99.99,,,-99.99,,2013-04-25 10:40:00,
2013-04-25 07:02:00,37.0,-99.9,30.61,South,186,9.0,17.0,-999,-99.99,,,-99.99,,2013-04-25 11:02:00,
2013-04-25 07:12:00,37.0,-99.9,29.91,South,186,9.0,17.0,-999,-99.99,,,-99.99,,2013-04-25 11:12:00,
2013-04-25 07:22:00,37.0,-99.9,29.91,South,186,9.0,17.0,-999,-99.99,,,-99.99,,2013-04-25 11:22:00,
2013-04-25 07:33:00,37.0,-99.9,29.91,South,186,9.0,17.0,-999,-99.99,,,-99.99,,2013-04-25 11:33:00,
2013-04-25 08:01:00,38.0,-99.9,30.60,South,188,6.0,13.0,-999,-99.99,,,-99.99,,2013-04-25 12:01:00,
2013-04-25 08:12:00,38.0,-99.9,29.90,South,188,6.0,13.0,-999,-99.99,,,-99.99,,2013-04-25 12:12:00,
2013-04-25 08:22:00,38.0,-99.9,29.90,South,188,6.0,13.0,-999,-99.99,,,-99.99,,2013-04-25 12:22:00,
2013-04-25 08:32:00,38.0,-99.9,30.61,SW,229,17.0,29.0,-999,-99.99,,,-99.99,,2013-04-25 12:32:00,
2013-04-25 08:42:00,38.0,-99.9,29.91,SW,229,17.0,29.0,-999,-99.99,,,-99.99,,2013-04-25 12:42:00,
2013-04-25 08:52:00,39.0,-99.9,29.91,WSW,238,23.0,0.0,-999,-99.99,,,-99.99,,2013-04-25 12:52:00,
2013-04-25 09:02:00,37.0,-99.9,30.63,West,260,25.0,32.0,-999,-99.99,,,-99.99,,2013-04-25 13:02:00,
2013-04-25 09:11:00,37.0,-99.9,29.93,West,260,25.0,32.0,-999,-99.99,,,-99.99,,2013-04-25 13:11:00,
2013-04-25 09:21:00,37.0,-99.9,30.63,West,266,26.0,29.0,-999,-99.99,,,-99.99,,2013-04-25 13:21:00,
2013-04-25 09:32:00,37.0,-99.9,29.93,West,266,26.0,29.0,-999,-99.99,,,-99.99,,2013-04-25 13:32:00,
2013-04-25 09:42:00,37.0,-99.9,29.93,West,266,26.0,29.0,-999,-99.99,,,-99.99,,2013-04-25 13:42:00,
2013-04-25 09:53:00,37.0,-99.9,30.66,West,271,28.0,0.0,-999,-99.99,,,-99.99,,2013-04-25 13:53:00,
2013-04-25 10:02:00,37.0,-99.9,30.68,West,278,26.0,34.0,-999,-99.99,,,-99.99,,2013-04-25 14:02:00,
2013-04-25 10:11:00,37.0,-99.9,29.98,West,278,26.0,34.0,-999,-99.99,,,-99.99,,2013-04-25 14:11:00,
2013-04-25 10:22:00,37.0,-99.9,29.98,West,278,26.0,34.0,-999,-99.99,,,-99.99,,2013-04-25 14:22:00,
2013-04-25 10:32:00,37.0,-99.9,30.68,West,273,27.0,29.0,-999,-99.99,,,-99.99,,2013-04-25 14:32:00,
2013-04-25 10:42:00,38.0,-99.9,30.69,West,269,24.0,0.0,-999,-99.99,,,-99.99,,2013-04-25 14:42:00,
2013-04-25 10:52:00,38.0,-99.9,29.99,West,269,24.0,0.0,-999,-99.99,,,-99.99,,2013-04-25 14:52:00,
2013-04-25 11:02:00,39.0,-99.9,29.99,West,270,19.0,25.0,-999,-99.99,,,-99.99,,2013-04-25 15:02:00,
2013-04-25 11:11:00,39.0,-99.9,30.00,West,270,19.0,25.0,-999,-99.99,,,-99.99,,2013-04-25 15:11:00,
2013-04-25 11:21:00,39.0,-99.9,30.00,West,270,19.0,25.0,-999,-99.99,,,-99.99,,2013-04-25 15:21:00,
2013-04-25 11:33:00,39.0,-99.9,30.00,West,270,19.0,25.0,-999,-99.99,,,-99.99,,2013-04-25 15:33:00,
2013-04-25 11:40:00,39.0,-99.9,30.04,WNW,282,23.0,26.0,-999,-99.99,,,-99.99,,2013-04-25 15:40:00,
2013-04-25 11:42:00,40.0,-99.9,30.72,WNW,293,24.0,29.0,-999,-99.99,,,-99.99,,2013-04-25 15:42:00,
2013-04-25 11:53:00,40.0,-99.9,30.02,WNW,293,24.0,29.0,-999,-99.99,,,-99.99,,2013-04-25 15:53:00,
2013-04-25 12:03:00,39.0,-99.9,30.74,WNW,282,23.0,26.0,-999,-99.99,,,-99.99,,2013-04-25 16:03:00,
2013-04-25 12:13:00,39.0,-99.9,30.04,WNW,282,23.0,26.0,-999,-99.99,,,-99.99,,2013-04-25 16:13:00,
2013-04-25 12:24:00,39.0,-99.9,30.04,WNW,282,23.0,26.0,-999,-99.99,,,-99.99,,2013-04-25 16:24:00,
2013-04-25 12:33:00,39.0,-99.9,30.04,WNW,282,23.0,26.0,-999,-99.99,,,-99.99,,2013-04-25 16:33:00,
2013-04-25 12:40:00,39.0,-99.9,30.07,West,277,20.0,26.0,-999,-99.99,,,-99.99,,2013-04-25 16:40:00,
2013-04-25 13:02:00,39.0,-99.9,30.77,West,277,20.0,26.0,-999,-99.99,,,-99.99,,2013-04-25 17:02:00,
2013-04-25 13:12:00,39.0,-99.9,30.07,West,277,20.0,26.0,-999,-99.99,,,-99.99,,2013-04-25 17:12:00,
2013-04-25 13:22:00,39.0,-99.9,30.07,West,277,20.0,26.0,-999,-99.99,,,-99.99,,2013-04-25 17:22:00,
2013-04-25 13:32:00,39.0,-99.9,30.07,West,277,20.0,26.0,-999,-99.99,,,-99.99,,2013-04-25 17:32:00,
2013-04-25 14:02:00,40.0,-99.9,30.80,West,280,18.0,21.0,-999,-99.99,,,-99.99,,2013-04-25 18:02:00,
2013-04-25 14:11:00,40.0,-99.9,30.10,West,280,18.0,21.0,-999,-99.99,,,-99.99,,2013-04-25 18:11:00,
2013-04-25 14:22:00,40.0,-99.9,30.10,West,280,18.0,21.0,-999,-99.99,,,-99.99,,2013-04-25 18:22:00,
2013-04-25 14:32:00,41.0,-99.9,30.82,West,271,17.0,27.0,-999,-99.99,,,-99.99,,2013-04-25 18:32:00,
2013-04-25 14:40:00,41.0,-99.9,30.13,WSW,257,17.0,19.0,-999,-99.99,,,-99.99,,2013-04-25 18:40:00,
2013-04-25 14:43:00,41.0,-99.9,30.82,West,271,17.0,27.0,-999,-99.99,,,-99.99,,2013-04-25 18:43:00,
2013-04-25 14:53:00,41.0,-99.9,30.12,West,271,17.0,27.0,-999,-99.99,,,-99.99,,2013-04-25 18:53:00,
2013-04-25 15:02:00,41.0,-99.9,30.83,WSW,257,17.0,19.0,-999,-99.99,,,-99.99,,2013-04-25 19:02:00,
2013-04-25 15:12:00,41.0,-99.9,30.13,WSW,257,17.0,19.0,-999,-99.99,,,-99.99,,2013-04-25 19:12:00,
2013-04-25 15:21:00,41.0,-99.9,30.13,WSW,257,17.0,19.0,-999,-99.99,,,-99.99,,2013-04-25 19:21:00,
2013-04-25 15:32:00,41.0,-99.9,30.13,WSW,257,17.0,19.0,-999,-99.99,,,-99.99,,2013-04-25 19:32:00,
2013-04-25 16:02:00,41.0,-99.9,30.84,West,260,14.0,16.0,-999,-99.99,,,-99.99,,2013-04-25 20:02:00,
2013-04-25 16:12:00,41.0,-99.9,30.14,West,260,14.0,16.0,-999,-99.99,,,-99.99,,2013-04-25 20:12:00,
2013-04-25 16:22:00,41.0,-99.9,30.85,West,270,13.0,21.0,-999,-99.99,,,-99.99,,2013-04-25 20:22:00,
2013-04-25 16:32:00,41.0,-99.9,30.85,West,270,13.0,21.0,-999,-99.99,,,-99.99,,2013-04-25 20:32:00,
2013-04-25 16:40:00,42.0,-99.9,30.16,WSW,254,20.0,24.0,-999,-99.99,,,-99.99,,2013-04-25 20:40:00,
2013-04-25 16:43:00,41.0,-99.9,30.85,West,270,13.0,21.0,-999,-99.99,,,-99.99,,2013-04-25 20:43:00,
2013-04-25 16:52:00,41.0,-99.9,30.85,West,270,13.0,21.0,-999,-99.99,,,-99.99,,2013-04-25 20:52:00,
2013-04-25 17:01:00,42.0,-99.9,30.86,WSW,254,20.0,24.0,-999,-99.99,,,-99.99,,2013-04-25 21:01:00,
2013-04-25 17:11:00,42.0,-99.9,30.16,WSW,254,20.0,24.0,-999,-99.99,,,-99.99,,2013-04-25 21:11:00,
2013-04-25 17:22:00,42.0,-99.9,30.16,WSW,254,20.0,24.0,-999,-99.99,,,-99.99,,2013-04-25 21:22:00,
2013-04-25 17:33:00,42.0,-99.9,30.16,WSW,254,20.0,24.0,-999,-99.99,,,-99.99,,2013-04-25 21:33:00,
2013-04-25 17:40:00,44.0,-99.9,30.18,WSW,254,18.0,22.0,-999,-99.99,,,-99.99,,2013-04-25 21:40:00,
2013-04-25 18:03:00,44.0,-99.9,30.88,WSW,254,18.0,22.0,-999,-99.99,,,-99.99,,2013-04-25 22:03:00,
2013-04-25 18:12:00,44.0,-99.9,30.18,WSW,254,18.0,22.0,-999,-99.99,,,-99.99,,2013-04-25 22:12:00,
2013-04-25 18:22:00,44.0,-99.9,30.18,WSW,254,18.0,22.0,-999,-99.99,,,-99.99,,2013-04-25 22:22:00,
2013-04-25 18:33:00,44.0,-99.9,30.18,WSW,254,18.0,22.0,-999,-99.99,,,-99.99,,2013-04-25 22:33:00,
2013-04-25 18:40:00,43.0,-99.9,30.20,WSW,250,15.0,18.0,-999,-99.99,,,-99.99,,2013-04-25 22:40:00,
2013-04-25 19:02:00,43.0,-99.9,30.90,WSW,250,15.0,18.0,-999,-99.99,,,-99.99,,2013-04-25 23:02:00,
2013-04-25 19:12:00,43.0,-99.9,30.20,WSW,250,15.0,18.0,-999,-99.99,,,-99.99,,2013-04-25 23:12:00,
2013-04-25 19:22:00,43.0,-99.9,30.20,WSW,250,15.0,18.0,-999,-99.99,,,-99.99,,2013-04-25 23:22:00,
2013-04-25 19:32:00,43.0,-99.9,30.20,WSW,250,15.0,18.0,-999,-99.99,,,-99.99,,2013-04-25 23:32:00,
2013-04-25 19:40:00,42.0,-99.9,30.21,WSW,246,16.0,19.0,-999,-99.99,,,-99.99,,2013-04-25 23:40:00,
2013-04-25 20:01:00,42.0,-99.9,30.91,WSW,246,16.0,19.0,-999,-99.99,,,-99.99,,2013-04-26 00:01:00,
2013-04-25 20:11:00,42.0,-99.9,30.21,WSW,246,16.0,19.0,-999,-99.99,,,-99.99,,2013-04-26 00:11:00,
2013-04-25 20:22:00,42.0,-99.9,30.21,WSW,246,16.0,19.0,-999,-99.99,,,-99.99,,2013-04-26 00:22:00,
2013-04-25 20:32:00,42.0,-99.9,30.21,WSW,246,16.0,19.0,-999,-99.99,,,-99.99,,2013-04-26 00:32:00,
2013-04-25 20:40:00,40.0,-99.9,30.22,WSW,240,11.0,14.0,-999,-99.99,,,-99.99,,2013-04-26 00:40:00,
2013-04-25 21:01:00,40.0,-99.9,30.92,WSW,240,11.0,14.0,-999,-99.99,,,-99.99,,2013-04-26 01:01:00,
2013-04-25 21:11:00,40.0,-99.9,30.22,WSW,240,11.0,14.0,-999,-99.99,,,-99.99,,2013-04-26 01:11:00,
2013-04-25 21:22:00,40.0,-99.9,30.22,WSW,240,11.0,14.0,-999,-99.99,,,-99.99,,2013-04-26 01:22:00,
2013-04-25 21:32:00,40.0,-99.9,30.22,WSW,240,11.0,14.0,-999,-99.99,,,-99.99,,2013-04-26 01:32:00,
2013-04-25 22:02:00,38.0,-99.9,30.94,SW,219,5.0,8.0,-999,-99.99,,,-99.99,,2013-04-26 02:02:00,
2013-04-25 22:12:00,38.0,-99.9,30.24,SW,219,5.0,8.0,-999,-99.99,,,-99.99,,2013-04-26 02:12:00,
2013-04-25 22:22:00,37.0,-99.9,30.95,SW,226,5.0,25.0,-999,-99.99,,,-99.99,,2013-04-26 02:22:00,
2013-04-25 22:32:00,37.0,-99.9,30.25,SW,226,5.0,25.0,-999,-99.99,,,-99.99,,2013-04-26 02:32:00,
2013-04-25 22:42:00,37.0,-99.9,30.25,SW,226,5.0,25.0,-999,-99.99,,,-99.99,,2013-04-26 02:42:00,
2013-04-25 22:52:00,37.0,-99.9,30.25,SW,226,5.0,25.0,-999,-99.99,,,-99.99,,2013-04-26 02:52:00,
2013-04-25 23:01:00,39.0,-99.9,30.95,SSW,209,7.0,10.0,-999,-99.99,,,-99.99,,2013-04-26 03:01:00,
2013-04-25 23:11:00,39.0,-99.9,30.25,SSW,209,7.0,10.0,-999,-99.99,,,-99.99,,2013-04-26 03:11:00,
2013-04-25 23:22:00,39.0,-99.9,30.25,SSW,209,7.0,10.0,-999,-99.99,,,-99.99,,2013-04-26 03:22:00,
2013-04-25 23:33:00,38.0,-99.9,30.96,South,179,4.0,12.0,-999,-99.99,,,-99.99,,2013-04-26 03:33:00,
2013-04-25 23:43:00,38.0,-99.9,30.26,South,179,4.0,12.0,-999,-99.99,,,-99.99,,2013-04-26 03:43:00,
2013-04-25 23:53:00,38.0,-99.9,30.96,South,179,4.0,12.0,-999,-99.99,,,-99.99,,2013-04-26 03:53:00,